Regional Weather Roundup
Issued by NWS

Home | Current Version | Previous Version | Text Only | Print | Product List | Glossary On
Versions: 1 2 3 4 5 6 7 8 9 10 11 12 13 14 15 16 17 18 19 20 21 22 23 24 25 26 27 28 29 30 31 32 33 34 35 36 37 38 39 40 41 42 43 44 45 46 47 48 49 50
000
ASUS42 KFFC 301803
RWRGA
WEATHER ROUNDUP FOR GEORGIA
NATIONAL WEATHER SERVICE PEACHTREE CITY GA
200 PM EDT MON MAR 30 2015

NOTE: "FAIR" INDICATES FEW OR NO CLOUDS BELOW 12,000 FEET WITH NO
SIGNIFICANT WEATHER AND/OR OBSTRUCTIONS TO VISIBILITY.

* = USE WITH CAUTION. THE STATIONS MARKED WITH AN ASTERISK MAY NOT
REPORT WEATHER SUCH AS PRECIPITATION, FOG, OR THUNDER AND ARE NOT
QUALITY CONTROLLED BY NWS.

THE REMARK "TC" DENOTES TEMPERATURE READING IN DEGREES CELSIUS.

GAZ001>058-301900-
NORTH GEORGIA

CITY           SKY/WX    TMP DP  RH WIND       PRES   REMARKS
ATLANTA        PTSUNNY   65  53  65 NW13      30.16F
6HR MIN TEMP:  53; 6HR MAX TEMP:  65;

ATHENS         PTSUNNY   67  51  56 W10       30.12F
6HR MIN TEMP:  44; 6HR MAX TEMP:  67; 6HR PCP:  0.01;

CHAMBLEE       PTSUNNY   64  50  60 W10G18    30.15F
6HR MIN TEMP:  50; 6HR MAX TEMP:  64; 6HR PCP:  0.13;

PEACHTREE CITY PTSUNNY   63  55  75 W7        30.17F
6HR MIN TEMP:  52; 6HR MAX TEMP:  63; 6HR PCP:  0.25;

ROME           MOSUNNY   66  46  48 VRB7G17   30.16F
6HR MIN TEMP:  52; 6HR MAX TEMP:  67; 6HR PCP: TRACE;

WEST ATLANTA   PTSUNNY   65  51  60 NW13      30.16F
6HR MIN TEMP:  51; 6HR MAX TEMP:  65; 6HR PCP:  0.15;

GAINESVILLE    MOSUNNY   64  44  48 NW17      30.14S
6HR MIN TEMP:  45; 6HR MAX TEMP:  65; 6HR PCP: TRACE;

CARTERSVILLE   MOSUNNY   65  49  56 VRB7      30.17F
6HR MIN TEMP:  52; 6HR MAX TEMP:  65; 6HR PCP:  0.01;



CITY           SKY/WX    TMP DP  RH WIND       PRES   REMARKS
DALTON*        MOSUNNY   63  46  55 NW9       30.17S
LAWRENCEVILLE* PTSUNNY   63  48  59 W12       30.14F
MARIETTA       PTSUNNY   63  50  63 NW12      30.15F
KENNESAW*      MOSUNNY   63  52  67 N9        30.17F
$$

GAZ059>098-102>109-301900-
CENTRAL GEORGIA

CITY           SKY/WX    TMP DP  RH WIND       PRES   REMARKS
AUGUSTA-BUSH   CLOUDY    63  53  70 W10       30.13F
6HR MIN TEMP:  48; 6HR MAX TEMP:  63; 6HR PCP:  0.09;

AUGUSTA-DANIEL CLOUDY    63  52  67 VRB6      30.13F
6HR MIN TEMP:  49; 6HR MAX TEMP:  64; 6HR PCP:  0.08;

COLUMBUS       CLOUDY    66  60  81 NW10      30.17F
6HR MIN TEMP:  51; 6HR MAX TEMP:  66; 6HR PCP:  0.41;

MACON          CLOUDY    62  55  77 W7        30.17F
6HR MIN TEMP:  48; 6HR MAX TEMP:  62; 6HR PCP:  0.45;

ROBINS AFB     CLOUDY    62  56  80 W5        30.16F


CITY           SKY/WX    TMP DP  RH WIND       PRES   REMARKS
LAGRANGE*      PTSUNNY   70  64  80 W12G17    30.17F
SYLVANIA*      CLOUDY    60  53  78 W10G16    30.17S
MILLEDGEVILLE* CLOUDY    63  59  88 W3        30.16F
$$

GAZ099>101-110>166-301900-
SOUTH GEORGIA

CITY           SKY/WX    TMP DP  RH WIND       PRES   REMARKS
SAVANNAH       CLOUDY    61  46  57 SW12      30.16F
6HR MIN TEMP:  45; 6HR MAX TEMP:  62; 6HR PCP: TRACE;

VALDOSTA       MOSUNNY   77  56  48 W8        30.19F
6HR MIN TEMP:  47; 6HR MAX TEMP:  77;

ALMA           PTSUNNY   63  50  62 S8        30.18F
6HR MIN TEMP:  44; 6HR MAX TEMP:  65; 6HR PCP: TRACE;

ST SIMONS      CLOUDY    69  49  48 NW13G21   30.23R
6HR MIN TEMP:  50; 6HR MAX TEMP:  71; 6HR PCP: TRACE;

FT STEWART     CLOUDY    57  50  77 S7        30.14F
ALBANY         PTSUNNY   72  59  63 SW10      30.21F
HUNTER AFB     LGT RAIN  60  51  72 SW8       30.14F
MOODY AFB      PTSUNNY   74  55  52 W14       30.18F
BRUNSWICK      CLOUDY    63  52  67 NW6G21    30.25S


CITY           SKY/WX    TMP DP  RH WIND       PRES   REMARKS
BAINBRIDGE*    MOSUNNY   79  63  57 W12       30.20F
MOULTRIE*      PTSUNNY   72  57  60 W10G20    30.21S
VIDALIA*       CLOUDY    59  54  82 SW14G20   30.18S
WAYCROSS*      CLOUDY    68  53  59 E9        30.20F
DOUGLAS*       PTSUNNY   61  48  63 SE5       30.21F
$$


USA.gov is the U.S. government's official web portal to all federal, state and local government web resources and services.